Temp
25 22 21 23 23 25 25 24 23 25 28 26 24 24 23 22 23 23 23 21 22 25 24 23 23 22 22 22 22 22 22 21 21 20 20 19 19 19 19 19 19 19 19 19
22 22 24 24 24 24 23 23 24 26 29 27 23 24 23 23 23 23 22 21 22 23 25 24 24 22 21 22 22 22 22 22 21 21 20 20 20 19 19 19 19 19 19 19
22 24 26 26 25 25 24 25 27 27 26 24 24 23 22 21 23 24 24 22 21 22 23 23 24 22 21 22 22 23 22 22 22 21 20 19 19 19 19 19 19 19 19 19
23 25 26 26 24 24 25 27 28 27 26 24 25 22 21 20 20 20 21 22 22 22 21 23 23 22 22 23 22 22 22 21 21 21 20 20 20 20 20 20 19 19 19 19
24 25 26 26 26 26 27 28 27 28 25 25 24 21 22 19 19 20 20 21 21 22 22 22 23 22 22 21 22 21 21 21 21 21 21 21 20 20 20 20 20 19 19 19
24 27 27 26 29 28 28 27 22 20 20 21 21 23 21 19 20 19 20 21 20 23 24 22 22 22 21 20 20 20 20 19 21 20 20 21 21 20 20 20 19 19 19 19
24 26 27 29 28 27 23 22 21 23 20 21 18 21 21 20 20 20 20 22 20 23 23 22 22 22 20 20 21 20 18 19 18 19 20 20 20 19 20 20 20 20 19 19
23 24 28 28 27 26 26 23 20 24 21 22 21 23 22 19 19 20 21 22 21 21 22 22 22 23 20 20 19 18 18 17 19 20 20 20 19 19 19 20 20 20 20 19
22 24 26 27 28 27 26 24 23 19 19 20 19 21 20 18 19 21 24 25 22 25 24 24 23 23 21 20 19 19 22 21 20 21 21 21 20 20 20 20 19 19 20 20
25 24 26 27 28 27 26 24 23 19 23 24 21 21 20 20 20 20 22 25 25 25 24 24 25 23 22 20 19 20 20 20 21 20 20 21 20 20 20 19 19 19 19 19
24 22 25 26 26 26 24 24 20 19 19 20 20 20 19 20 19 20 22 24 24 25 25 25 25 24 23 22 20 21 20 19 20 20 20 19 18 19 20 20 20 20 19 19
24 20 24 26 26 24 26 26 20 20 22 18 18 21 17 18 19 19 21 22 23 24 23 24 25 24 24 23 22 24 22 21 21 20 20 19 18 19 20 20 20 20 19 19
24 20 21 23 22 23 24 24 23 17 16 18 20 21 17 18 18 19 20 22 23 24 25 24 24 24 24 23 22 22 22 22 21 19 19 19 20 20 20 20 20 20 20 19
24 17 20 20 22 22 24 24 24 21 19 19 19 23 17 17 17 19 21 22 21 23 23 23 24 24 23 23 22 21 22 21 21 20 20 20 21 20 20 20 20 20 19 19
21 22 22 21 21 23 24 24 23 23 21 22 22 21 19 17 17 19 21 21 21 21 21 22 21 22 23 23 22 21 22 22 21 20 20 21 21 21 21 21 21 20 20 19
18 21 22 24 23 23 24 24 24 23 22 21 19 21 17 18 20 21 21 21 21 21 21 21 21 21 22 22 23 22 21 21 20 21 21 21 21 21 21 21 21 21 20 20
21 18 18 21 21 22 21 24 23 21 20 22 23 21 17 18 18 19 20 20 20 21 21 21 21 21 20 20 21 21 20 21 22 22 22 21 21 21 21 21 21 21 20 20
17 17 16 18 20 22 21 21 21 20 19 19 19 18 18 18 18 20 20 20 20 21 21 21 20 20 20 20 20 20 20 20 21 21 19 19 20 21 20 20 20 21 21 20
17 16 16 19 18 20 23 23 22 21 19 18 19 18 18 18 19 19 19 20 20 20 20 21 21 21 20 20 20 20 20 20 19 18 18 17 18 19 20 20 18 18 19 20
15 16 18 15 20 20 20 22 22 20 17 19 19 17 17 19 17 15 20 20 20 20 20 20 21 21 21 20 20 20 19 19 19 19 19 18 18 18 18 19 18 17 17 18
18 17 18 16 19 19 19 22 22 21 18 19 20 19 18 18 19 21 19 20 20 20 20 19 19 20 19 19 19 19 19 19 19 19 19 18 18 18 17 17 17 17 15 15
18 18 17 16 18 21 20 22 23 18 20 21 20 20 20 21 21 20 20 21 21 21 21 20 20 20 19 19 19 19 18 18 18 18 18 18 17 17 17 17 17 17 17 17
19 17 17 16 16 17 19 20 20 21 20 20 20 20 20 20 20 20 20 20 19 19 19 19 19 19 19 19 19 18 18 18 18 17 17 17 16 16 16 16 17 17 17 16
18 18 16 17 18 18 19 20 20 20 21 20 20 20 20 20 20 20 19 19 19 19 19 19 18 18 18 18 18 18 18 17 17 17 16 16 16 16 16 16 16 16 17 16
17 18 15 15 17 18 19 20 20 20 20 20 20 19 19 19 19 19 19 19 19 19 18 18 18 18 18 18 18 17 17 17 16 16 16 16 16 16 15 15 16 17 16 16
17 16 15 14 18 18 19 20 20 20 20 20 20 19 18 18 18 18 18 18 18 18 17 16 16 16 16 16 17 16 16 16 16 15 15 16 15 15 15 14 15 16 16 15
Height
1510 1518 1525 1516 1515 1514 1515 1520 1521 1505 1493 1497 1503 1502 1506 1506 1509 1506 1503 1502 1501 1502 1506 1507 1510 1512 1518 1521 1523 1525 1527 1532 1536 1539 1541 1544 1545 1548 1549 1551 1553 1554 1555 1557
1517 1523 1504 1507 1509 1513 1515 1521 1517 1500 1491 1495 1505 1505 1507 1507 1508 1508 1504 1502 1503 1505 1505 1504 1507 1511 1513 1516 1518 1523 1526 1529 1532 1536 1539 1542 1544 1546 1547 1549 1551 1553 1554 1555
1520 1505 1501 1503 1505 1511 1511 1514 1506 1507 1497 1498 1503 1514 1516 1514 1511 1506 1502 1500 1502 1504 1506 1505 1503 1506 1508 1508 1512 1516 1520 1524 1529 1533 1536 1539 1543 1544 1544 1545 1547 1549 1552 1553
1512 1501 1501 1504 1508 1506 1516 1495 1495 1498 1508 1524 1503 1540 1521 1519 1514 1509 1505 1499 1498 1499 1500 1498 1498 1500 1503 1504 1509 1513 1517 1521 1527 1529 1533 1534 1537 1540 1541 1542 1545 1547 1549 1551
1511 1501 1501 1504 1499 1494 1500 1489 1495 1495 1507 1509 1514 1530 1517 1518 1516 1509 1504 1499 1495 1490 1488 1491 1494 1498 1501 1502 1503 1506 1511 1517 1523 1525 1529 1531 1535 1538 1540 1541 1541 1543 1546 1548
1500 1493 1493 1491 1485 1486 1486 1492 1503 1511 1519 1539 1526 1521 1525 1519 1511 1505 1497 1498 1495 1486 1483 1488 1492 1495 1499 1502 1502 1503 1507 1506 1516 1523 1527 1528 1530 1534 1536 1538 1538 1540 1542 1544
1502 1494 1485 1482 1488 1487 1494 1512 1545 1542 1550 1546 1528 1524 1517 1508 1506 1501 1496 1492 1492 1485 1485 1485 1488 1492 1496 1499 1501 1503 1507 1506 1512 1519 1523 1524 1528 1532 1533 1535 1536 1536 1538 1540
1522 1520 1485 1479 1482 1493 1495 1508 1544 1546 1555 1542 1522 1530 1514 1505 1503 1497 1492 1491 1490 1486 1486 1487 1488 1490 1494 1498 1499 1504 1498 1502 1511 1515 1519 1521 1524 1527 1529 1530 1531 1532 1534 1536
1523 1512 1482 1477 1477 1482 1498 1511 1503 1534 1538 1543 1542 1522 1503 1501 1500 1493 1488 1489 1491 1484 1487 1487 1486 1488 1494 1497 1498 1504 1504 1503 1508 1513 1516 1516 1520 1522 1523 1527 1527 1528 1529 1532
1498 1516 1487 1481 1479 1482 1488 1495 1518 1527 1541 1540 1540 1532 1524 1501 1501 1493 1486 1484 1485 1487 1487 1486 1485 1487 1491 1496 1498 1500 1505 1506 1507 1509 1511 1514 1518 1520 1522 1523 1524 1524 1526 1527
1493 1508 1501 1487 1495 1498 1500 1507 1513 1522 1533 1548 1552 1537 1496 1494 1497 1494 1489 1488 1487 1487 1487 1486 1486 1488 1491 1494 1497 1499 1503 1506 1508 1510 1512 1514 1515 1518 1518 1519 1520 1520 1521 1523
1489 1507 1513 1502 1490 1492 1490 1498 1511 1533 1531 1538 1539 1525 1492 1491 1492 1496 1494 1492 1491 1491 1491 1489 1488 1489 1491 1493 1495 1497 1501 1504 1507 1510 1511 1511 1511 1513 1514 1514 1517 1517 1517 1519
1486 1510 1527 1515 1506 1496 1500 1499 1502 1516 1525 1535 1537 1523 1495 1493 1495 1495 1496 1494 1492 1491 1491 1491 1492 1492 1492 1494 1495 1496 1500 1503 1504 1506 1508 1507 1507 1508 1508 1509 1511 1512 1513 1514
1482 1512 1518 1534 1519 1508 1506 1501 1499 1508 1529 1525 1522 1501 1501 1497 1497 1498 1499 1494 1494 1491 1492 1492 1491 1493 1494 1493 1495 1497 1498 1501 1501 1503 1504 1502 1503 1504 1505 1506 1506 1508 1509 1509
1487 1512 1507 1507 1506 1504 1502 1501 1497 1501 1502 1510 1501 1501 1493 1493 1497 1498 1497 1496 1495 1495 1495 1496 1496 1495 1494 1495 1495 1497 1496 1497 1498 1498 1498 1499 1501 1501 1502 1500 1501 1503 1503 1504
1494 1511 1506 1506 1500 1500 1500 1496 1494 1495 1498 1500 1501 1496 1493 1493 1496 1497 1497 1497 1497 1497 1498 1499 1497 1496 1495 1495 1495 1496 1495 1496 1497 1495 1497 1496 1496 1497 1496 1494 1496 1496 1497 1500
1498 1510 1519 1519 1507 1503 1515 1500 1497 1499 1499 1497 1500 1494 1495 1497 1497 1500 1502 1503 1501 1500 1500 1499 1498 1496 1496 1497 1497 1495 1495 1494 1496 1495 1495 1496 1494 1494 1494 1495 1495 1492 1492 1494
1500 1508 1517 1523 1513 1529 1506 1495 1495 1501 1502 1498 1497 1498 1499 1501 1502 1503 1504 1505 1505 1505 1503 1502 1501 1499 1499 1499 1498 1497 1495 1495 1493 1492 1493 1492 1489 1491 1489 1492 1492 1491 1489 1487
1487 1501 1519 1523 1528 1513 1498 1495 1496 1500 1510 1502 1500 1502 1501 1504 1505 1508 1508 1507 1506 1506 1506 1504 1502 1501 1501 1500 1499 1497 1497 1495 1494 1492 1490 1490 1488 1486 1485 1482 1487 1491 1491 1489
1488 1490 1502 1524 1520 1527 1502 1490 1491 1493 1519 1501 1500 1503 1503 1503 1513 1509 1507 1507 1507 1507 1507 1505 1504 1503 1502 1501 1500 1499 1497 1494 1491 1490 1490 1490 1489 1486 1481 1476 1483 1486 1487 1485
1499 1501 1507 1517 1514 1508 1492 1487 1490 1508 1512 1498 1499 1501 1503 1504 1504 1505 1507 1508 1508 1507 1506 1505 1504 1502 1502 1501 1500 1499 1496 1493 1490 1488 1487 1487 1487 1487 1486 1486 1486 1474 1471 1477
1502 1506 1510 1514 1513 1511 1489 1489 1494 1494 1494 1497 1499 1500 1502 1503 1503 1504 1505 1504 1504 1504 1503 1502 1500 1499 1498 1497 1496 1494 1492 1490 1487 1485 1483 1482 1482 1483 1483 1482 1482 1479 1473 1465
1505 1500 1504 1506 1505 1493 1490 1490 1492 1493 1495 1499 1500 1501 1501 1502 1503 1503 1503 1503 1502 1501 1501 1499 1498 1496 1495 1493 1491 1489 1488 1486 1484 1481 1478 1476 1476 1476 1476 1476 1478 1476 1471 1463
1493 1491 1498 1499 1497 1495 1493 1494 1496 1497 1498 1499 1500 1500 1501 1501 1501 1501 1500 1500 1499 1499 1497 1496 1494 1492 1490 1488 1486 1483 1482 1480 1478 1476 1474 1472 1470 1469 1469 1468 1467 1466 1463 1459
1495 1493 1498 1502 1498 1497 1497 1497 1497 1499 1500 1500 1500 1500 1499 1499 1498 1497 1496 1495 1495 1494 1493 1491 1489 1487 1485 1483 1481 1479 1477 1474 1472 1470 1467 1466 1464 1462 1460 1460 1460 1457 1455 1453
1489 1491 1497 1500 1491 1493 1494 1495 1496 1497 1498 1498 1498 1498 1497 1496 1495 1494 1493 1492 1491 1489 1487 1486 1484 1481 1479 1477 1475 1473 1472 1469 1465 1462 1459 1457 1455 1454 1453 1452 1452 1451 1448 1447
Wind_Speed
5 4 6 8 6 5 5 4 8 12 5 4 3 2 7 9 11 8 16 22 31 37 15 22 21 28 36 40 39 36 33 29 28 29 28 26 24 22 21 18 17 17 16 14
4 6 13 4 4 6 6 5 7 6 1 4 3 4 6 4 3 9 10 17 27 34 13 17 23 23 37 40 38 40 36 32 30 30 29 26 19 20 21 19 21 19 18 16
6 8 5 1 4 4 6 5 3 5 4 5 4 4 5 5 7 7 4 10 16 24 21 16 23 27 35 42 45 39 40 35 31 28 28 26 21 20 22 23 22 20 20 18
5 7 4 3 8 6 4 5 3 5 3 2 3 3 5 2 5 4 5 5 11 17 26 28 26 29 33 39 45 44 40 39 33 31 28 27 24 25 23 23 24 21 19 21
8 7 5 4 7 7 8 2 2 3 1 2 2 5 5 4 7 3 2 4 10 13 27 34 23 23 29 41 42 44 42 32 32 30 30 27 26 25 19 20 24 25 22 23
9 9 4 8 3 4 2 5 6 4 3 4 5 4 4 2 3 6 11 7 2 11 18 29 31 21 21 30 32 36 34 25 28 32 35 30 25 24 19 21 22 25 25 24
6 5 4 6 3 3 7 7 4 5 5 5 5 3 6 3 5 7 13 11 7 16 10 15 24 15 14 21 24 27 31 35 35 36 31 27 23 22 21 22 22 23 26 28
1 7 2 3 7 7 2 7 5 3 2 4 4 3 5 5 13 17 20 12 7 13 15 9 10 23 14 18 22 12 14 26 31 16 19 22 26 25 24 24 23 23 25 23
4 5 7 3 2 6 2 1 3 6 2 2 2 5 8 4 8 13 10 6 4 17 18 17 12 13 22 20 24 15 11 13 20 18 14 20 25 25 24 23 22 23 23 21
3 2 5 5 5 5 6 4 4 4 2 1 3 4 6 6 4 9 7 15 16 17 17 14 8 7 14 17 16 12 18 22 20 18 19 25 20 25 23 22 22 20 23 23
5 5 7 3 4 0 5 3 6 5 4 4 1 6 6 6 8 8 8 10 15 17 18 8 6 6 9 11 12 12 20 24 22 24 23 23 19 21 21 22 23 21 22 24
4 5 2 3 2 3 2 2 4 5 4 0 3 5 8 8 12 3 7 16 16 22 22 7 3 5 6 11 9 10 16 22 25 28 29 31 26 20 21 22 21 19 22 25
5 3 2 8 6 5 5 3 4 5 3 5 5 6 4 5 7 10 10 14 17 14 9 6 7 6 10 11 13 15 18 21 25 26 28 23 21 22 21 23 22 20 20 23
7 4 5 6 5 2 5 5 2 5 3 4 6 5 3 7 7 4 9 7 7 5 4 8 6 1 8 14 16 15 18 24 26 27 29 21 21 20 21 19 18 20 20 22
5 3 2 5 6 3 4 4 7 4 5 5 5 8 4 7 8 11 4 6 10 16 13 9 9 9 4 4 10 19 15 13 15 20 23 23 18 20 21 20 18 18 20 20
4 2 1 2 4 3 2 6 3 4 3 2 3 1 2 4 6 7 12 10 9 9 12 10 10 9 7 4 5 7 10 12 14 18 20 19 21 22 22 23 22 22 22 20
3 6 3 4 4 5 4 3 1 4 3 1 2 3 1 5 11 12 16 14 13 11 8 9 9 10 11 10 8 8 10 14 14 16 14 16 19 23 24 23 23 23 23 21
7 5 2 3 3 1 5 3 12 11 6 6 5 6 4 7 10 8 7 13 14 11 8 7 6 7 8 9 10 12 14 16 11 10 14 18 18 20 22 24 27 27 26 24
5 6 3 4 3 4 4 2 0 4 3 5 3 4 8 9 7 7 10 10 9 7 4 5 8 9 9 12 14 15 16 15 14 11 13 16 20 18 22 18 24 29 33 30
5 4 5 3 4 6 6 2 2 9 0 5 8 5 7 4 3 3 4 3 3 4 9 7 9 11 14 14 15 16 15 17 18 18 19 23 20 20 18 21 31 43 34 30
3 3 5 3 4 5 5 4 7 3 6 11 18 14 12 2 5 1 5 5 5 7 8 8 9 10 11 11 11 13 16 17 19 21 24 26 23 19 17 15 18 21 18 13
2 2 2 2 2 3 4 2 2 6 19 18 16 16 16 10 7 6 5 4 6 9 11 15 18 17 17 16 15 16 17 18 22 25 26 27 26 23 22 20 14 15 7 11
1 4 4 4 4 4 4 9 17 16 20 13 13 9 9 9 7 5 6 6 6 6 6 8 10 14 17 19 20 21 21 22 23 24 26 27 25 23 24 20 10 10 11 5
4 2 3 3 4 4 13 15 14 11 10 7 4 4 1 2 5 8 7 6 7 9 10 11 13 16 19 19 20 21 21 20 22 24 25 25 27 25 23 21 11 9 10 8
4 3 4 1 2 6 7 10 9 7 6 4 1 3 2 2 5 9 10 9 10 11 13 15 17 19 20 20 21 22 22 23 24 25 27 27 27 29 26 21 17 13 11 9
5 5 4 5 12 5 9 7 6 6 5 6 7 7 4 4 6 7 9 11 12 12 11 13 16 20 22 24 26 26 26 28 31 33 35 37 33 24 23 21 18 14 18 15
Wind_Direction
359 37 251 246 185 217 270 260 284 287 242 104 227 48 126 160 193 215 229 211 206 207 225 230 220 228 222 221 224 219 216 218 217 215 214 218 220 220 223 227 223 227 226 230
11 252 249 222 180 219 243 266 275 277 67 121 168 230 83 77 12 339 255 225 215 209 231 227 221 235 231 225 219 221 220 219 215 216 219 226 232 235 235 239 232 231 229 230
167 244 17 254 268 200 269 213 227 240 9 27 125 27 65 17 51 33 312 268 235 228 222 226 232 231 228 227 221 219 220 221 216 218 222 225 228 234 228 227 223 227 226 227
231 280 254 274 252 147 248 198 205 283 58 275 112 263 112 150 224 261 122 160 228 234 230 219 238 227 230 231 224 218 221 219 218 220 223 224 233 228 226 228 227 228 228 224
257 285 311 279 221 163 231 101 57 348 136 34 44 89 258 117 230 227 239 168 175 256 224 214 224 235 231 226 223 220 221 215 224 224 226 228 235 238 240 237 232 232 233 226
247 262 219 221 274 184 62 63 42 57 52 18 311 124 276 283 276 298 287 302 89 104 183 213 223 241 230 222 227 223 238 217 244 232 228 228 236 238 237 239 233 231 233 231
314 259 253 200 221 13 73 59 352 355 8 229 327 33 245 273 298 249 272 272 102 77 97 202 215 227 215 221 232 229 235 238 228 218 224 231 240 244 247 243 240 233 231 230
145 333 293 169 187 178 127 138 148 230 237 271 334 329 262 229 283 274 271 268 134 69 36 3 256 234 215 213 210 216 269 216 208 216 221 238 238 238 248 246 237 234 235 239
161 278 294 184 129 116 135 53 181 106 360 51 262 283 295 231 285 279 280 289 115 35 6 340 327 250 239 240 244 245 230 197 201 219 252 251 232 232 241 243 239 238 235 230
200 346 266 322 74 28 112 149 55 15 124 259 302 275 241 258 230 276 274 6 7 360 356 346 339 273 239 245 259 247 240 227 223 225 229 243 248 235 242 242 240 241 233 226
145 104 293 46 29 249 7 17 65 112 107 157 226 267 229 208 194 234 259 346 340 345 354 0 339 302 238 241 244 274 253 238 235 225 216 242 239 241 243 242 243 240 234 226
185 163 112 203 245 323 158 79 108 112 275 12 156 270 326 166 194 265 325 317 314 329 340 342 334 255 246 232 236 228 241 233 227 231 235 248 262 250 240 243 244 241 237 229
183 28 46 343 355 353 55 348 105 97 77 202 148 261 24 137 174 211 289 316 335 334 349 358 301 274 250 239 245 241 240 245 243 246 251 254 248 242 240 242 243 241 237 231
99 83 141 175 212 231 323 334 98 129 132 195 224 261 167 202 195 211 268 325 38 54 55 37 59 336 274 264 254 253 250 249 248 251 256 253 249 245 244 244 244 240 243 237
87 123 155 211 231 233 246 299 328 196 214 175 295 197 261 206 173 203 135 119 79 79 76 60 46 45 25 322 279 259 259 256 262 257 255 253 257 250 247 249 247 245 242 243
18 195 110 276 280 8 307 326 24 38 88 67 125 300 277 126 126 111 129 135 108 86 79 66 54 57 34 4 288 284 290 292 268 256 248 259 259 258 261 259 251 244 243 243
122 134 109 257 323 351 15 357 31 85 14 220 251 245 132 78 80 99 127 127 111 96 81 64 60 52 58 47 21 354 313 315 298 275 274 284 280 272 263 265 261 252 246 244
143 115 116 210 25 353 244 128 103 96 31 353 81 94 81 103 100 82 118 129 118 100 82 62 52 27 12 14 4 357 340 333 315 293 275 285 283 280 276 281 276 271 263 255
190 128 115 154 176 277 161 222 95 126 349 336 338 104 138 129 119 82 106 106 96 86 59 8 354 349 345 337 338 336 333 335 336 335 341 353 352 324 281 294 296 296 280 267
70 73 123 137 153 208 236 226 130 122 278 284 171 137 156 120 139 257 135 81 2 321 314 332 344 337 331 335 334 328 331 336 337 343 354 353 349 348 346 298 302 289 302 277
15 19 153 160 198 281 251 299 133 191 222 165 165 169 171 197 224 192 170 233 256 258 267 277 288 300 305 310 312 314 320 327 329 328 331 334 342 342 332 333 329 351 324 62
178 114 218 92 122 243 8 329 186 173 152 154 159 171 189 208 201 194 206 248 269 276 274 278 281 283 287 296 297 302 309 317 317 319 322 326 329 334 330 333 332 337 292 337
338 179 182 170 213 278 25 113 127 150 151 154 147 155 181 185 191 215 240 253 219 233 255 277 287 294 300 303 303 300 302 304 310 314 318 322 326 334 337 334 332 320 307 227
318 155 106 77 322 32 99 112 125 130 132 131 113 93 137 250 268 269 255 231 266 286 295 298 299 301 301 303 299 298 300 299 298 301 306 310 315 320 327 334 324 301 305 271
225 2 120 24 20 113 122 122 122 123 132 151 150 132 126 283 285 288 290 291 295 295 291 289 287 288 290 288 288 288 290 291 290 291 294 298 301 305 307 310 323 271 288 279
196 190 162 209 195 182 177 167 185 195 214 238 250 249 302 337 329 314 298 290 288 285 288 295 298 298 296 298 295 291 288 287 288 289 289 292 296 291 287 290 301 281 262 268